Weather in Veidelevka

Russia / Belgorod Oblast     50°08′49″N   38°26′40″E
temp.,
°C
wind,
m/s
gust,
m/s
humid.,
%
clouds,
%
prec.,
mm/h
press.,
hPa
HPBL,
m
12 april, mon
mon1200:00+8ne61177100 0.0 1024443
03:00+7ne5119598 0.0 1024300
06:00+7ne5119692 0.0 1023259
09:00+12ene7117466 0.0 1023404
12:00+20ese710395 0.0 1021982
15:00+23ese8113053 0.0 10211786
18:00+20se61240100 0.0 1021459
21:00+14ese496062 0.0 1023153
13 april, tue
tue1300:00+12e4136597 0.0 1023248
03:00+10ese41170100 0.0 1023227
06:00+10ese4117495 0.0 1024227
09:00+14ese61154100 0.0 1023498
12:00+18se7103954 0.0 10221166
15:00+20se81139100 0.0 10222082
18:00+18se61047100 0.0 1021545
21:00+14s226795 0.0 102237
14 april, wed
wed1400:00+12se117787 0.0 102118
03:00+10ese346435 0.0 102058
06:00+9ese366571 0.0 1020109
09:00+14se694666 0.0 1019516
12:00+17sse7154391 0.0 10182042
15:00+19sse7940100 0.0 10172232
18:00+16s2453100 0.1 1017300
21:00+12nnw2377100 0.1 101752
15 april, thu
thu1500:00+11nnw2278100 0.0 101635
03:00+12wnw1176100 0.0 101615
06:00+11nne2274100 0.0 101526
09:00+15ne2254100 0.0 1015328
12:00+18w124468 0.0 10141695
15:00+17ssw1245100 0.1 10131569
18:00+15e115949 0.1 101359
21:00+14ssw486391 0.2 1013324
16 april, fri
fri1600:00+11sw3778100 0.0 1014342
03:00+11wsw117922 0.2 101436
06:00+8s34895 0.0 101591
09:00+12ssw46675 0.0 1015809
12:00+15s57485 0.0 10161701
15:00+16s5741100 0.0 10152387
18:00+12wsw566163 0.0 1016638
21:00+10wsw2566100 0.0 1018164